Weather History for Charleston, SC

Change the Weather History Date:

Saturday, March 1, 2014

  Actual Average (KCHS) Record (KCHS)
Temperature  
Mean Temperature 50 °F 55 °F  
Max Temperature 55 °F 66 °F 82 °F (1951)
Min Temperature 46 °F 43 °F 23 °F (2002)
Degree Days  
Heating Degree Days 14 11  
Month to date heating degree days 11  
Since 1 July heating degree days 1647  
Cooling Degree Days 0 0  
Month to date cooling degree days 0  
Year to date cooling degree days 7  
Moisture  
Dew Point 50 °F    
Average Humidity 100    
Maximum Humidity 100    
Minimum Humidity 100    
Precipitation  
Precipitation 0.00 in 0.11 in 1.44 in (2009)
Month to date precipitation 0.11  
Year to date precipitation 6.78  
Sea Level Pressure  
Sea Level Pressure 30.24 in    
Wind  
Wind Speed 7 mph (NNE)    
Max Wind Speed 12 mph    
Max Gust Speed -    
Visibility 9 miles    
Events Rain    
T = Trace of Precipitation, MM = Missing Value Source: NWS Daily Summary

Daily Weather History Graph

Daily Weather History Graph

Search for Another Location

Airport:

Trip Planner

Search our weather history database for the weather conditions in past years. The results will help you decide how hot, cold, wet, or windy it might be!

Date:

Astronomy

Mar. 01, 2014 Rise Set
Actual Time 6:47 AM EST 6:17 PM EST
Civil Twilight 6:23 AM EST 6:42 PM EST
Nautical Twilight 5:54 AM EST 7:10 PM EST
Astronomical Twilight 5:26 AM EST 7:39 PM EST
Moon 6:43 AM EST (3/1) 6:58 PM EST (3/1)
Length of Visible Light 12h 19m
Length of Day
11h 29m
New Moon, 0% of the Moon is Illuminated
Mar 1
New Moon
Mar 8
First Quarter
Mar 16
Full
Mar 23
Last Quarter
Mar 30
New

Hourly Weather History & Observations

Time (EST) Temp. Windchill Dew Point Humidity Pressure Visibility Wind Dir Wind Speed Gust Speed Precip Events Conditions
12:15 AM 48.2 °F - 48.2 °F 100% 30.21 in 10.0 mi NE 8.1 mph - 0.00 in   Overcast
12:35 AM 48.2 °F - 48.2 °F 100% 30.21 in 9.0 mi NE 11.5 mph - 0.00 in   Overcast
12:55 AM 48.2 °F - 48.2 °F 100% 30.21 in 9.0 mi NE 9.2 mph - 0.00 in   Overcast
1:15 AM 48.2 °F - 48.2 °F 100% 30.21 in 9.0 mi NE 9.2 mph - 0.00 in   Overcast
1:35 AM 48.2 °F - 48.2 °F 100% 30.22 in 10.0 mi NNE 6.9 mph - 0.00 in   Overcast
1:55 AM 48.2 °F - 48.2 °F 100% 30.21 in 9.0 mi NNE 8.1 mph - 0.00 in   Overcast
2:15 AM 48.2 °F - 48.2 °F 100% 30.22 in 10.0 mi North 8.1 mph - 0.00 in   Overcast
2:35 AM 48.2 °F - 48.2 °F 100% 30.21 in 10.0 mi North 9.2 mph - 0.00 in   Overcast
2:55 AM 48.2 °F - 48.2 °F 100% 30.20 in 7.0 mi North 9.2 mph - 0.00 in   Overcast
3:15 AM 48.2 °F - 48.2 °F 100% 30.20 in 10.0 mi North 5.8 mph - 0.00 in   Overcast
3:35 AM 48.2 °F - 48.2 °F 100% 30.20 in 10.0 mi NNE 9.2 mph - 0.00 in   Overcast
3:55 AM 48.2 °F - 48.2 °F 100% 30.19 in 10.0 mi North 4.6 mph - 0.00 in   Overcast
4:15 AM 48.2 °F - 48.2 °F 100% 30.20 in 10.0 mi North 8.1 mph - 0.00 in   Overcast
4:35 AM 46.4 °F 42.4 °F 46.4 °F 100% 30.18 in 10.0 mi NNE 8.1 mph - 0.00 in   Overcast
4:55 AM 46.4 °F 42.9 °F 46.4 °F 100% 30.19 in 10.0 mi NNE 6.9 mph - 0.00 in   Overcast
5:15 AM 46.4 °F 41.9 °F 46.4 °F 100% 30.20 in 10.0 mi NNE 9.2 mph - 0.00 in   Overcast
5:35 AM 46.4 °F 42.4 °F 46.4 °F 100% 30.21 in 10.0 mi NNE 8.1 mph - 0.00 in   Overcast
5:55 AM 46.4 °F 42.4 °F 46.4 °F 100% 30.21 in 10.0 mi NNE 8.1 mph - 0.00 in   Overcast
6:15 AM 46.4 °F 41.9 °F 46.4 °F 100% 30.22 in 10.0 mi NNE 9.2 mph - 0.00 in   Overcast
6:35 AM 46.4 °F 43.5 °F 46.4 °F 100% 30.23 in 10.0 mi NE 5.8 mph - 0.00 in   Overcast
6:55 AM 46.4 °F 42.4 °F 46.4 °F 100% 30.22 in 10.0 mi NE 8.1 mph - 0.00 in   Overcast
7:15 AM 46.4 °F 41.1 °F 46.4 °F 100% 30.22 in 10.0 mi NE 11.5 mph - 0.00 in   Mostly Cloudy
7:35 AM 46.4 °F 42.4 °F 46.4 °F 100% 30.24 in 10.0 mi NNE 8.1 mph - 0.00 in   Mostly Cloudy
7:55 AM 46.4 °F 41.9 °F 46.4 °F 100% 30.24 in 10.0 mi NNE 9.2 mph - 0.00 in   Overcast
8:15 AM 46.4 °F 41.9 °F 46.4 °F 100% 30.27 in 10.0 mi NNE 9.2 mph - 0.00 in   Overcast
8:35 AM 46.4 °F 42.9 °F 46.4 °F 100% 30.28 in 10.0 mi North 6.9 mph - 0.00 in   Overcast
8:55 AM 48.2 °F - 48.2 °F 100% 30.29 in 10.0 mi North 8.1 mph - 0.00 in   Mostly Cloudy
9:15 AM 48.2 °F - 48.2 °F 100% 30.29 in 10.0 mi NNE 10.4 mph - 0.00 in   Overcast
9:35 AM 48.2 °F - 48.2 °F 100% 30.30 in 10.0 mi NNE 9.2 mph - 0.00 in   Overcast
9:55 AM 48.2 °F - 48.2 °F 100% 30.30 in 10.0 mi NNE 8.1 mph - 0.00 in   Mostly Cloudy
10:15 AM 48.2 °F - 48.2 °F 100% 30.30 in 10.0 mi North 8.1 mph - 0.00 in   Overcast
10:35 AM 51.8 °F - 51.8 °F 100% 30.31 in 10.0 mi North 9.2 mph - 0.00 in   Mostly Cloudy
10:55 AM 51.8 °F - 51.8 °F 100% 30.30 in 10.0 mi NNE 8.1 mph - 0.00 in   Overcast
11:15 AM 51.8 °F - 51.8 °F 100% 30.31 in 10.0 mi NNE 8.1 mph - 0.00 in   Mostly Cloudy
11:35 AM 51.8 °F - 51.8 °F 100% 30.31 in 10.0 mi NNE 9.2 mph - 0.00 in   Mostly Cloudy
11:55 AM 51.8 °F - 51.8 °F 100% 30.31 in 10.0 mi NNW 10.4 mph - 0.00 in   Overcast
12:15 PM 50.0 °F - 50.0 °F 100% 30.29 in 7.0 mi North 10.4 mph - 0.00 in Rain Light Rain
12:35 PM 50.0 °F - 50.0 °F 100% 30.29 in 3.0 mi NNW 8.1 mph - 0.00 in   Overcast
12:55 PM 50.0 °F - 50.0 °F 100% 30.28 in 3.0 mi North 5.8 mph - 0.00 in Rain Light Rain
1:15 PM 48.2 °F - 48.2 °F 100% 30.27 in 1.5 mi NNW 6.9 mph - 0.00 in Rain Light Rain
1:35 PM 48.2 °F - 48.2 °F 100% 30.25 in 8.0 mi NNE 10.4 mph - 0.00 in   Overcast
1:55 PM 50.0 °F - 50.0 °F 100% 30.25 in 3.0 mi Calm Calm - 0.00 in Rain Light Rain
2:15 PM 51.8 °F - 51.8 °F 100% 30.24 in 8.0 mi NW 3.5 mph - 0.00 in   Light Drizzle
2:35 PM 51.8 °F - 51.8 °F 100% 30.24 in 10.0 mi North 4.6 mph - 0.00 in   Light Drizzle
2:55 PM 51.8 °F - 51.8 °F 100% 30.24 in 8.0 mi Calm Calm - 0.00 in   Light Drizzle
3:15 PM 53.6 °F - 53.6 °F 100% 30.23 in 10.0 mi NNW 5.8 mph - 0.00 in   Mostly Cloudy
3:55 PM 55.4 °F - 55.4 °F 100% 30.22 in 10.0 mi Calm Calm - 0.00 in   Mostly Cloudy
4:15 PM 55.4 °F - 55.4 °F 100% 30.22 in 10.0 mi Calm Calm - 0.00 in   Mostly Cloudy
4:55 PM 55.4 °F - 55.4 °F 100% 30.21 in 10.0 mi Calm Calm - 0.00 in   Overcast
5:15 PM 55.4 °F - 55.4 °F 100% 30.22 in 10.0 mi Calm Calm - 0.00 in   Overcast
5:35 PM 55.4 °F - 55.4 °F 100% 30.23 in 10.0 mi Calm Calm - 0.00 in   Overcast
5:55 PM 55.4 °F - 55.4 °F 100% 30.23 in 10.0 mi Calm Calm - 0.00 in   Overcast
6:15 PM 55.4 °F - 55.4 °F 100% 30.22 in 10.0 mi Calm Calm - 0.00 in   Overcast
6:35 PM 53.6 °F - 53.6 °F 100% 30.23 in 10.0 mi Calm Calm - 0.00 in   Overcast
6:55 PM 53.6 °F - 53.6 °F 100% 30.23 in 10.0 mi Calm Calm - 0.00 in   Overcast
7:15 PM 53.6 °F - 53.6 °F 100% 30.24 in 10.0 mi Calm Calm - 0.00 in   Overcast
7:35 PM 51.8 °F - 51.8 °F 100% 30.24 in 10.0 mi Calm Calm - 0.00 in   Mostly Cloudy
7:55 PM 51.8 °F - 51.8 °F 100% 30.24 in 10.0 mi Calm Calm - 0.00 in   Overcast
8:15 PM 53.6 °F - 53.6 °F 100% 30.25 in 10.0 mi Calm Calm - 0.00 in   Overcast
8:35 PM 51.8 °F - 51.8 °F 100% 30.25 in 10.0 mi Calm Calm - 0.00 in   Overcast
8:55 PM 51.8 °F - 51.8 °F 100% 30.26 in 10.0 mi Calm Calm - 0.00 in   Overcast
9:15 PM 51.8 °F - 51.8 °F 100% 30.26 in 10.0 mi Calm Calm - 0.00 in   Mostly Cloudy
9:35 PM 50.0 °F - 50.0 °F 100% 30.26 in 9.0 mi Calm Calm - 0.00 in   Scattered Clouds
9:55 PM 48.2 °F - 48.2 °F 100% 30.26 in 8.0 mi Calm Calm - 0.00 in   Scattered Clouds
10:15 PM 48.2 °F - 48.2 °F 100% 30.26 in 5.0 mi Calm Calm - 0.00 in   Scattered Clouds
10:35 PM 48.2 °F - 48.2 °F 100% 30.26 in 7.0 mi Calm Calm - 0.00 in   Overcast
10:55 PM 48.2 °F - 48.2 °F 100% 30.25 in 8.0 mi Calm Calm - 0.00 in   Overcast
11:15 PM 46.4 °F - 46.4 °F 100% 30.25 in 7.0 mi Calm Calm - 0.00 in   Partly Cloudy
11:35 PM 46.4 °F - 46.4 °F 100% 30.26 in 6.0 mi Calm Calm - 0.00 in   Partly Cloudy
11:55 PM 46.4 °F - 46.4 °F 100% 30.25 in 5.0 mi Calm Calm - 0.00 in   Mostly Cloudy